Flag for U.S.A. Weather past 2 weeks in Santa Barbara, California, U.S.A.

Now
59 °F

Sunny.


Feels Like: 58 °F
Forecast: 44 / 54 °F
Wind: 8 mph from West

Location: Santa Barbara Municipal Airport

Current Time: Mar 1, 2015 at 5:56:30 PM

Latest Report: Mar 1, 2015 at 4:53 PM


Visibility: 10 mi

Pressure: 29.89 "Hg

Humidity: 62%

Dew point: 46 °F

Location of Santa BarbaraLocation

Historic Weather in Santa Barbara — Graph

°F

Santa Barbara temperature yesterday

Maximum temperature yesterday: 62 °F (at 11:53 AM)
Minimum temperature yesterday: 50 °F (at 6:53 AM)
Average temperature yesterday: 56 °F

Past Weeks' High & Low Weather Summary

 TemperatureHumidityPressure
High77 °F (Feb 14, 3:53 PM)100% (Feb 16, 3:53 AM)30.26 "Hg (Feb 16, 3:53 AM)
Low40 °F (Feb 24, 3:53 AM)24% (Feb 14, 3:53 PM)29.72 "Hg (Feb 27, 2:53 PM)
Average57 °F77%29.98 "Hg
* Reported Feb 14 3:53 PM — Mar 1 3:53 PM, Santa Barbara, Weather by CustomWeather, © 2015

Note: Actual official high and low records may vary slightly from our data, if they occured in-between our weather recording intervals... More about our weather records

Advertising

Santa Barbara weather history for previous 24 hours

 ConditionsComfort  
Time TempWeatherWind HumidityBarometerVisibility
3:53 PM
Sun, Mar 1
60 °FBroken clouds.9 mph60%29.89 "Hg10 mi
2:53 PM61 °FScattered clouds.9 mph60%29.89 "Hg10 mi
1:53 PM62 °FScattered clouds.7 mph56%29.89 "Hg10 mi
12:53 PM62 °FScattered clouds.8 mph56%29.90 "Hg10 mi
11:53 AM61 °FScattered clouds.10 mph60%29.93 "Hg10 mi
10:53 AM60 °FScattered clouds.7 mph60%29.94 "Hg10 mi
9:53 AM58 °FPassing clouds.6 mph60%29.93 "Hg10 mi
8:53 AM58 °FScattered clouds.3 mph60%29.93 "Hg10 mi
7:53 AM52 °FScattered clouds.No wind83%29.93 "Hg10 mi
6:53 AM48 °FSunny.No wind93%29.91 "Hg10 mi
5:53 AM49 °FPassing clouds.No wind90%29.90 "Hg10 mi
4:53 AM49 °FPassing clouds.3 mph90%29.90 "Hg10 mi
3:53 AM50 °FMostly cloudy.3 mph83%29.89 "Hg10 mi
2:53 AM50 °FOvercast.5 mph86%29.90 "Hg10 mi
1:53 AM51 °FLight rain. Overcast.10 mph86%29.92 "Hg8 mi
12:53 AM52 °FHeavy rain. Overcast.8 mph72%29.90 "Hg3 mi
11:53 PM
Sat, Feb 28
52 °FPassing clouds.3 mph83%29.89 "Hg10 mi
10:53 PM51 °FPassing clouds.5 mph86%29.89 "Hg10 mi
9:53 PM52 °FPartly cloudy.5 mph86%29.88 "Hg10 mi
8:53 PM54 °FPassing clouds.5 mph77%29.87 "Hg10 mi
7:53 PM56 °FPassing clouds.3 mph72%29.86 "Hg10 mi
6:53 PM55 °FPassing clouds.5 mph74%29.85 "Hg10 mi
5:53 PM57 °FPassing clouds.9 mph67%29.83 "Hg10 mi
Weather by CustomWeather, © 2015

See weather overviewHow to use our weather pages